Regional Weather Roundup
Issued by NWS State College, PA

Home | Current Version | Previous Version | Graphics & Text | Print | Product List | Glossary Off
Versions: 1 2 3 4 5 6 7 8 9 10 11 12 13 14 15 16 17 18 19 20 21 22 23 24 25 26 27 28 29 30 31 32 33 34 35 36 37 38 39 40 41 42 43 44 45 46 47 48 49 50

000
ASUS41 KCTP 272210
RWRCTP

REGIONAL WEATHER ROUNDUP
NATIONAL WEATHER SERVICE STATE COLLEGE PA
600 PM EDT TUE JUN 27 2017

Note: "fair" indicates few or no clouds below 12,000 feet with no
significant weather and/or obstructions to visibility.

* = STATION THAT DOES NOT REPORT PRECIPITATION /E.G. RAIN...SNOW...ETC/
    THUNDER OR FOG.

PAZ002>004-007>009-013>016-020>023-029>032-272300-
WESTERN PENNSYLVANIA

CITY           SKY/WX    TMP DP  RH WIND       PRES   REMARKS
ERIE           SUNNY     67  50  54 W12G21    30.05R
MEADVILLE      PTSUNNY   63  48  58 VRB7      30.07S
FRANKLIN*      PTSUNNY   61  45  55 NW7       30.07S
NEW CASTLE     FAIR      67  47  48 W7        30.08S
BEAVER COUNTY  MOSUNNY   68  46  45 NW6       30.07F
BUTLER*        MOSUNNY   66  46  48 W8        30.08S
PITTSBURGH INT PTSUNNY   67  47  48 NW10      30.07F
PITTSBURGH     CLOUDY    66  45  46 NW9       30.07S
INDIANA*       PTSUNNY   64  50  59 W8        30.09S
LATROBE        PTSUNNY   66  46  48 W12       30.08S
WASHINGTON CO* PTSUNNY   70  45  40 W7        30.10S
$$

PAZ004>006-010>012-017>019-024>028-033>037-041-042-045-046-049>053-272300-
CENTRAL PENNSYLVANIA

CITY           SKY/WX    TMP DP  RH WIND       PRES   REMARKS
BRADFORD       LGT RAIN  56  52  86 W9        30.04S FOG
DUBOIS         CLOUDY    60  48  64 W8        30.05S
CLEARFIELD     LGT RAIN  62  51  67 W12       30.05S
JOHNSTOWN      MOSUNNY   64  47  53 W10G18    30.07S
ALTOONA        CLOUDY    67  48  50 W13       30.06S
STATE COLLEGE  PTSUNNY   66  50  55 W14G25    30.04R
WILLIAMSPORT   PTSUNNY   70  47  43 W17G23    29.96R
SELINSGROVE    MOSUNNY   72  47  40 W12G20    29.99R
FT INDIANTOWN  MOSUNNY   73  46  38 W12G21    29.97S
CAPITAL CITY   PTSUNNY   76  43  30 NW10G22   29.98R
HARRISBURG     PTSUNNY   76  49  38 W15       29.97R
YORK           CLOUDY    73  48  41 W9        29.98S
$$

PAZ038>040-043-044-047-048-054-055-060>062-067>071-272300-
EASTERN PENNSYLVANIA

CITY           SKY/WX    TMP DP  RH WIND       PRES   REMARKS
SCRANTON       PTSUNNY   72  49  44 W15       29.94F
MOUNT POCONO   CLOUDY    64  50  60 W6        29.98S
ALLENTOWN      PTSUNNY   73  53  49 N5        29.95R
QUAKERTOWN*    PTCLDY    75  48  38 W7        29.96S
READING        PTSUNNY   75  50  41 NW13      29.95R
LANCASTER      MOSUNNY   75  49  39 NW15      29.96S
COATESVILLE    PTCLDY    73  50  43 VRB5G12   29.98F
POTTSTOWN      CLOUDY    75  46  35 W9G17     29.97S
BLUE BELL      MOSUNNY   73  50  43 W9G23     29.96S
DOYLESTOWN     PTSUNNY   75  50  41 SW6       29.94F
WILLOW GROVE   NOT AVBL
NORTH PHILA    SUNNY     79  49  34 W14G22    29.96R
PHILADELPHIA   MOSUNNY   79  48  33 W14G23    29.95S
$$




USA.gov is the U.S. government's official web portal to all federal, state and local government web resources and services.